Location: Newark
(7.1028°S, 35.3258°W)
Time: 04:41:19
(UTC+00:00)

deb Explorer IX - Pass Details

Date: 26 February 2020
Orbit: 547 x 1100 km, 38.8° (Epoch: 04 April)

Event Time Altitude Azimuth Distance (km) Brightness Sun altitude
Exits shadow 05:31:53 26° 129° (SE) 1,872 ? -43.0°
Drops below altitude 10° 05:36:12 10° 89° (E) 2,695 ? -41.9°
Sets 05:39:04 0° 77° (ENE) 3,551 ? -41.3°
